Wetbulb
57.05 56.79 57.05 56.94 56.98 57.18 57.38 57.17 56.93 56.62 56.65 57.09 57.47 58.43 58.48 58.45 58.52 58.64 58.83 59.03 59.16 59.21 59.42 59.51 59.89 59.49 51.71 44.34 44.94 53.66 58.44 57.34 56.68 56.23 51.97 49.34 45.36 45.35 40.89 42.09 43.57 40.78 43.50 45.83 46.48 46.13 45.33
56.75 56.65 56.63 56.74 57.02 57.34 57.27 56.94 56.63 56.45 56.44 57.46 57.73 57.98 57.95 57.83 57.85 57.97 58.28 58.65 58.81 58.74 59.14 59.73 59.92 57.82 47.12 39.56 52.40 54.11 53.22 54.21 54.29 53.15 49.76 48.47 47.87 47.86 44.48 41.78 41.62 45.56 45.00 44.84 45.65 43.55 44.25
56.72 56.63 56.60 56.95 56.73 57.13 57.34 57.23 56.87 56.67 57.17 56.72 57.66 57.64 57.47 57.56 57.52 57.65 57.86 58.15 58.37 58.25 58.53 58.66 59.14 52.28 44.89 43.82 52.16 52.37 53.05 53.07 53.04 52.23 48.79 49.04 49.67 47.51 46.41 41.49 45.53 45.67 41.84 43.51 42.58 43.25 41.73
56.19 56.16 56.11 56.42 56.48 56.92 57.23 57.14 56.70 57.06 56.59 56.42 56.86 57.26 57.20 57.22 57.24 57.20 57.33 57.44 57.85 57.98 57.48 58.38 58.55 49.17 41.95 51.99 51.14 52.42 52.93 52.47 53.23 53.56 51.75 52.08 51.01 46.93 45.49 46.33 44.29 41.46 41.64 36.60 39.40 41.92 42.63
56.15 56.29 55.95 56.21 56.70 57.06 57.18 57.03 56.98 56.79 57.03 55.96 56.01 56.46 56.83 56.63 56.76 56.78 56.78 57.10 57.90 57.62 58.08 57.46 48.35 45.46 41.17 54.28 49.23 51.68 51.33 49.79 51.63 51.87 52.14 52.42 50.16 45.75 45.39 39.39 37.57 37.72 29.40 31.87 35.07 41.43 42.69
55.99 55.98 56.19 56.06 56.50 56.95 57.06 56.96 56.96 56.87 56.82 56.54 55.74 55.78 56.07 56.44 56.20 56.37 56.62 56.43 56.62 54.13 52.09 51.04 49.24 40.76 44.57 44.12 48.68 50.55 51.54 51.14 49.40 49.59 48.20 47.50 45.49 40.69 40.47 38.00 30.36 31.19 30.91 32.83 32.94 38.03 41.30
55.41 55.82 55.89 56.07 56.34 56.72 56.87 56.87 56.80 56.84 56.59 56.38 56.04 55.67 55.89 56.23 55.92 56.28 51.74 45.34 40.97 40.67 44.95 40.46 40.84 41.71 44.58 48.27 50.39 48.89 50.92 48.99 47.46 44.31 38.37 42.87 37.37 34.14 36.01 38.51 37.72 36.46 34.09 33.71 34.95 40.00 39.66
55.26 55.29 55.49 55.84 55.97 56.51 56.56 56.54 56.59 56.62 56.47 56.09 55.86 55.70 55.86 55.75 55.57 55.26 48.54 41.97 41.23 42.68 37.16 44.83 45.03 44.69 46.48 46.84 42.88 45.46 49.69 42.70 41.15 36.22 38.57 35.60 30.72 36.90 38.81 38.03 36.74 35.05 33.05 30.48 35.88 39.91 38.87
54.53 54.87 55.62 55.83 55.84 56.19 56.28 56.34 56.34 56.36 56.20 55.95 55.55 55.55 55.55 55.17 55.52 48.74 44.51 44.40 48.61 47.17 38.07 41.05 44.27 43.25 43.68 45.22 41.42 42.80 44.89 43.04 38.97 36.22 36.03 30.74 35.58 39.70 37.92 35.63 34.18 31.85 30.68 31.42 32.56 37.41 38.37
54.09 54.74 55.36 55.34 55.56 55.72 55.91 56.06 56.04 56.12 56.52 56.09 55.32 55.36 55.25 55.05 48.26 45.79 43.61 47.99 48.67 46.16 28.56 34.12 39.06 42.55 44.35 43.98 38.70 46.44 45.57 42.16 38.67 35.65 37.11 34.06 38.70 37.79 36.12 34.62 33.86 29.75 35.06 36.23 35.18 32.47 27.73
53.94 54.46 54.97 54.95 55.21 55.45 55.69 55.78 55.78 56.23 56.12 55.65 55.30 54.99 54.48 53.04 45.38 45.09 46.86 48.29 47.49 41.92 15.74 35.81 39.23 46.95 44.49 40.08 40.75 40.97 45.06 41.45 35.79 35.59 34.66 32.55 35.51 35.33 35.03 35.05 36.02 33.65 36.41 36.07 34.79 31.17 29.08
53.54 54.18 54.69 54.62 54.98 55.25 55.54 55.58 55.71 56.16 55.77 55.29 55.15 54.71 53.44 48.03 45.77 46.18 47.96 46.21 43.86 27.75 16.10 33.04 39.48 38.67 38.65 38.78 39.25 41.60 40.97 42.28 40.92 36.68 36.23 34.46 39.66 38.71 36.69 38.51 37.78 37.79 34.71 34.81 32.57 30.30 22.46
53.25 53.88 54.24 54.48 54.75 55.60 55.80 55.97 56.02 55.99 55.57 55.11 54.94 54.53 50.81 49.00 44.49 47.55 46.84 43.50 29.15 19.81 33.42 32.41 34.18 37.65 35.79 34.75 36.59 37.52 36.06 33.76 31.19 24.70 26.89 32.68 34.42 37.72 38.40 34.92 36.71 35.04 31.61 23.88 24.90 22.51 22.39
53.35 53.59 53.93 54.26 54.65 55.87 55.93 55.85 55.77 55.76 55.28 54.72 54.43 52.11 49.97 49.10 47.52 47.49 43.88 33.97 21.45 28.60 30.69 37.26 36.67 36.25 32.38 34.25 33.44 35.24 32.43 29.82 33.33 31.59 24.19 22.23 23.46 33.39 37.68 33.58 31.08 31.98 30.13 22.81 20.68 19.88 21.20
54.76 54.08 54.42 54.65 54.70 55.68 55.25 55.49 55.65 55.32 54.71 54.33 52.73 46.89 46.30 47.41 48.64 46.24 37.56 24.04 25.89 30.06 35.43 34.79 35.12 30.02 30.06 33.46 32.40 31.82 29.81 29.79 32.04 32.85 26.06 24.95 27.00 35.12 36.66 35.66 34.84 30.65 25.76 31.61 26.31 24.60 20.27
54.87 54.64 54.66 54.52 54.60 55.80 55.02 55.17 55.45 55.14 54.59 53.93 45.44 44.54 45.20 47.64 46.78 41.87 33.73 31.71 31.88 36.75 37.46 36.39 29.54 30.73 26.34 29.11 29.95 29.85 28.46 33.12 32.95 34.90 34.50 30.64 25.46 32.40 35.26 35.99 36.02 32.44 35.30 27.24 26.38 21.64 21.37
55.08 54.80 54.82 54.81 55.10 55.65 55.21 55.03 54.92 55.07 54.73 52.55 44.60 42.15 46.44 47.66 45.21 37.44 28.74 29.81 35.72 39.29 38.48 35.73 31.73 30.61 29.53 27.84 27.99 28.76 29.30 33.33 34.58 34.59 34.97 31.14 29.68 29.62 32.79 30.93 30.69 32.11 30.29 30.36 29.33 27.26 22.95
55.03 54.87 55.15 55.14 54.89 55.19 54.86 55.07 54.87 54.79 53.92 47.22 41.77 35.14 45.30 45.72 36.90 32.44 31.65 34.94 40.04 37.56 38.85 37.46 35.45 33.97 30.58 29.63 27.58 28.53 28.63 32.00 36.15 35.35 31.26 31.90 29.62 25.29 28.99 33.87 35.16 33.15 30.59 30.91 25.99 25.99 25.19
55.11 54.86 55.06 55.09 54.75 54.71 54.50 54.68 54.60 54.45 52.63 42.04 38.58 38.65 45.48 43.09 30.49 30.33 33.65 36.78 38.00 37.21 36.90 36.28 35.05 35.91 33.90 30.50 26.67 29.58 29.80 36.74 36.31 34.47 28.56 31.02 27.95 21.27 25.81 28.71 32.26 28.94 30.96 31.25 29.83 27.39 24.31
54.88 54.60 54.77 55.01 54.66 54.50 54.30 54.34 54.08 53.97 53.77 44.19 39.07 36.32 37.46 38.26 35.77 33.74 32.24 33.60 33.83 38.67 37.64 37.31 35.35 34.90 32.55 30.55 32.07 28.96 29.95 35.40 36.48 35.23 40.63 35.18 27.40 26.80 23.27 25.64 28.63 27.37 29.46 30.33 28.32 22.39 22.97
54.87 54.71 54.77 55.14 54.91 54.91 54.45 54.24 53.81 53.32 53.40 44.14 38.65 36.69 35.04 32.65 34.61 33.49 34.27 34.59 33.06 33.78 36.74 37.20 34.09 34.51 32.72 28.74 29.89 28.69 31.08 32.14 35.12 39.43 34.47 30.78 24.87 23.25 26.62 27.57 27.11 28.17 28.82 29.60 27.67 26.40 24.29
55.02 54.63 54.78 55.12 54.96 55.12 54.50 54.05 53.53 52.80 52.41 41.51 37.18 37.44 36.63 34.40 35.89 33.47 35.12 33.30 34.69 35.25 35.80 34.17 33.24 34.76 34.09 30.96 31.27 30.20 31.68 30.10 29.85 32.52 31.50 31.49 26.71 26.98 25.86 27.74 26.77 26.42 27.33 27.12 27.83 28.90 28.24
55.06 54.62 54.70 55.04 54.99 55.06 54.40 53.84 53.35 52.43 50.54 41.24 40.31 40.37 37.16 35.39 33.44 32.50 33.09 34.15 35.91 36.89 37.12 37.12 36.19 34.30 33.33 34.89 35.15 34.68 35.19 34.48 32.71 30.82 30.86 30.71 27.71 25.80 24.10 27.03 27.67 25.51 27.48 27.67 27.75 27.50 29.69
54.89 54.59 54.57 54.84 54.69 54.79 54.31 53.83 53.44 52.20 49.93 42.84 40.88 40.05 35.02 32.20 33.83 34.11 35.46 36.29 36.24 36.68 34.62 37.00 36.31 34.46 36.07 38.18 37.35 35.02 32.85 33.67 33.16 32.80 33.46 29.83 28.05 26.13 22.97 25.18 18.46 28.85 30.55 31.29 30.61 31.16 30.76
55.17 54.75 54.47 54.59 54.59 54.75 54.39 53.98 53.71 52.51 51.42 43.53 42.85 41.20 36.69 31.51 34.07 33.95 35.05 35.48 35.08 35.62 34.84 36.62 37.18 37.40 38.11 35.35 31.94 29.39 28.98 28.71 29.99 31.65 31.34 32.06 29.15 25.52 22.72 22.58 28.24 28.07 28.69 29.12 28.78 30.03 32.20
55.05 54.64 54.40 54.45 54.43 54.40 54.21 54.00 53.85 52.83 52.16 45.02 42.83 42.94 39.06 32.55 33.34 35.75 34.48 34.59 32.90 31.26 33.05 35.11 36.93 38.21 36.64 34.01 31.59 25.96 25.52 27.07 25.88 27.29 31.36 31.40 30.48 26.99 24.94 22.70 23.23 29.90 32.07 32.04 31.15 26.99 31.66
54.91 54.58 54.37 54.36 54.39 54.33 54.10 53.91 53.82 52.94 52.22 47.30 44.18 43.63 41.49 35.33 37.61 36.59 33.98 33.70 35.21 32.48 31.64 33.01 34.54 34.47 35.65 30.75 28.16 26.59 26.03 28.55 25.38 25.44 26.65 27.27 26.61 25.42 24.55 23.59 27.29 32.62 31.63 32.52 24.66 28.79 32.79
54.61 54.43 54.29 54.45 54.55 54.40 54.17 53.80 53.62 53.13 52.50 48.38 45.02 44.54 42.85 38.82 39.79 39.96 39.62 36.71 35.45 34.52 31.83 34.44 34.36 33.89 32.51 29.77 28.31 27.68 26.20 28.95 26.88 28.23 28.38 27.89 25.19 24.82 24.49 23.03 21.18 33.49 31.65 29.66 33.52 32.68 33.22
48.61 53.77 54.13 53.82 53.56 52.87 52.48 52.13 51.54 51.42 52.05 50.73 45.30 45.32 45.25 41.53 40.86 43.08 43.20 43.02 41.53 40.74 36.99 36.01 35.93 35.80 36.23 31.67 30.24 29.17 28.77 27.74 28.64 26.58 30.83 28.17 31.55 27.88 29.49 29.51 35.97 32.62 32.79 33.87 34.71 35.05 34.77
MSLP
1023.15 1023.00 1022.89 1022.76 1022.50 1022.16 1021.90 1021.68 1021.44 1021.22 1020.91 1020.59 1020.38 1020.18 1020.04 1019.85 1019.60 1019.32 1018.98 1018.77 1018.50 1018.19 1018.06 1017.93 1017.72 1017.47 1017.35 1017.50 1017.50 1016.78 1016.63 1016.39 1016.08 1016.34 1016.70 1016.72 1016.89 1016.98 1017.26 1017.54 1017.39 1017.04 1016.69 1016.09 1015.44 1015.03 1014.96
1023.25 1023.27 1023.18 1022.96 1022.60 1022.34 1022.00 1021.71 1021.46 1021.21 1020.92 1020.58 1020.31 1020.15 1020.03 1019.74 1019.45 1019.17 1018.89 1018.62 1018.39 1018.11 1017.99 1017.88 1017.70 1017.47 1017.59 1017.63 1016.92 1016.72 1016.70 1016.35 1016.21 1016.25 1016.58 1016.88 1016.72 1016.81 1017.25 1017.38 1017.31 1016.71 1016.62 1016.01 1015.34 1015.28 1014.76
1023.50 1023.31 1023.32 1023.08 1022.77 1022.48 1022.12 1021.77 1021.51 1021.19 1020.86 1020.57 1020.23 1020.00 1019.83 1019.64 1019.35 1019.02 1018.76 1018.47 1018.31 1018.09 1017.92 1017.87 1017.76 1017.78 1017.78 1017.46 1016.74 1016.70 1016.50 1016.36 1016.35 1016.44 1016.68 1016.90 1016.82 1016.87 1017.23 1017.25 1017.28 1016.97 1017.04 1016.10 1015.23 1014.84 1014.39
1023.67 1023.53 1023.46 1023.20 1022.87 1022.56 1022.24 1021.90 1021.56 1021.21 1020.84 1020.55 1020.18 1019.88 1019.60 1019.44 1019.21 1018.87 1018.56 1018.26 1018.15 1017.99 1017.90 1017.87 1017.83 1017.91 1017.63 1016.73 1016.72 1016.79 1016.43 1016.49 1016.53 1016.65 1016.81 1016.96 1016.95 1017.10 1017.22 1017.00 1017.05 1016.83 1016.66 1016.10 1014.31 1014.18 1013.97
1023.83 1023.70 1023.56 1023.21 1022.94 1022.65 1022.29 1021.90 1021.60 1021.20 1020.78 1020.45 1020.13 1019.82 1019.50 1019.22 1018.97 1018.66 1018.34 1017.97 1017.70 1017.69 1017.73 1017.81 1017.98 1017.94 1017.51 1016.61 1016.77 1016.69 1016.68 1016.74 1016.85 1017.05 1017.05 1017.05 1017.15 1017.49 1017.27 1016.95 1016.82 1016.35 1015.82 1015.20 1014.09 1013.61 1013.86
1024.01 1023.82 1023.62 1023.32 1023.03 1022.73 1022.37 1021.93 1021.58 1021.18 1020.77 1020.34 1019.94 1019.65 1019.42 1019.12 1018.81 1018.43 1018.06 1017.75 1017.45 1017.44 1017.63 1017.78 1018.03 1018.46 1017.36 1017.13 1016.88 1016.78 1016.58 1016.73 1017.03 1017.27 1017.50 1017.52 1017.67 1017.79 1017.41 1017.17 1016.48 1016.03 1015.38 1014.70 1014.07 1013.94 1013.91
1024.32 1023.98 1023.71 1023.44 1023.10 1022.81 1022.44 1022.02 1021.58 1021.15 1020.74 1020.27 1019.80 1019.48 1019.22 1018.99 1018.70 1018.29 1017.89 1017.74 1018.23 1018.17 1017.99 1018.20 1018.38 1018.36 1017.73 1017.09 1016.81 1016.70 1016.57 1016.68 1016.94 1017.30 1017.51 1017.47 1017.77 1017.58 1017.06 1016.53 1015.94 1015.07 1014.80 1014.41 1013.83 1013.70 1014.10
1024.39 1024.18 1023.85 1023.53 1023.20 1022.87 1022.49 1022.04 1021.58 1021.12 1020.68 1020.22 1019.76 1019.35 1019.03 1018.81 1018.56 1018.25 1018.17 1018.49 1018.65 1018.87 1018.52 1018.07 1018.08 1018.01 1017.56 1017.41 1017.19 1016.71 1016.58 1017.02 1017.15 1017.30 1017.23 1017.28 1016.98 1016.27 1016.00 1015.70 1015.53 1014.79 1014.60 1014.44 1014.02 1014.09 1014.31
1024.41 1024.26 1023.90 1023.59 1023.24 1022.88 1022.50 1022.07 1021.60 1021.09 1020.64 1020.20 1019.69 1019.27 1018.90 1018.57 1018.45 1018.44 1018.58 1018.90 1018.87 1018.82 1018.90 1018.20 1017.71 1017.57 1017.34 1017.42 1017.23 1016.65 1016.67 1016.91 1017.09 1017.25 1017.27 1017.13 1016.52 1015.68 1015.30 1015.11 1015.04 1014.87 1014.80 1014.53 1014.50 1014.69 1015.11
1024.24 1024.13 1023.95 1023.59 1023.26 1022.87 1022.49 1022.09 1021.64 1021.10 1020.58 1020.14 1019.66 1019.21 1018.80 1018.39 1018.73 1018.86 1019.02 1018.94 1018.94 1018.97 1019.46 1018.72 1017.68 1017.04 1017.03 1017.10 1017.07 1016.45 1016.43 1016.96 1017.04 1017.27 1017.19 1017.07 1016.23 1015.77 1015.38 1015.47 1015.47 1015.08 1014.93 1014.69 1014.84 1015.28 1016.06
1023.96 1023.98 1023.86 1023.56 1023.22 1022.83 1022.44 1022.03 1021.58 1021.08 1020.52 1020.08 1019.63 1019.16 1018.86 1018.24 1018.72 1019.07 1019.30 1019.13 1019.14 1019.36 1019.91 1018.66 1017.46 1016.47 1016.62 1017.30 1017.27 1016.60 1016.61 1016.77 1017.14 1017.22 1017.38 1017.27 1016.47 1015.99 1015.69 1015.71 1015.54 1015.36 1015.05 1014.96 1015.57 1016.33 1016.69
1023.71 1023.74 1023.73 1023.47 1023.12 1022.72 1022.35 1021.92 1021.43 1020.97 1020.41 1020.02 1019.59 1019.12 1018.90 1018.84 1019.10 1019.27 1019.17 1019.21 1019.56 1020.22 1020.07 1018.84 1017.72 1017.29 1017.16 1017.13 1017.24 1016.95 1017.03 1017.09 1017.21 1017.34 1017.24 1017.15 1016.52 1016.22 1015.93 1015.46 1015.30 1015.22 1015.14 1015.52 1016.48 1017.26 1017.91
1023.47 1023.48 1023.43 1023.29 1023.00 1022.57 1022.17 1021.76 1021.29 1020.80 1020.29 1019.83 1019.45 1019.07 1018.86 1018.97 1019.33 1019.26 1019.37 1019.70 1020.68 1020.35 1020.36 1019.39 1018.54 1018.09 1017.91 1017.73 1017.53 1017.73 1017.97 1018.20 1018.63 1018.55 1018.33 1017.63 1016.91 1016.19 1016.04 1015.61 1015.12 1015.10 1016.05 1017.25 1017.95 1018.49 1018.70
1023.25 1023.12 1023.19 1023.06 1022.81 1022.44 1022.04 1021.58 1021.14 1020.66 1020.13 1019.59 1019.21 1019.05 1019.18 1019.30 1019.33 1019.42 1019.79 1020.30 1020.89 1021.02 1020.31 1019.50 1018.97 1018.53 1018.39 1017.96 1017.95 1018.19 1018.60 1019.22 1019.12 1019.34 1019.55 1018.92 1017.39 1016.49 1016.00 1016.26 1016.37 1016.33 1016.93 1018.05 1018.73 1019.33 1019.00
1022.86 1022.84 1022.81 1022.82 1022.64 1022.24 1021.88 1021.46 1020.92 1020.50 1019.99 1019.44 1019.05 1019.41 1019.49 1019.62 1019.59 1019.74 1020.24 1020.96 1020.78 1020.63 1020.20 1019.85 1019.21 1018.99 1018.83 1018.46 1018.37 1018.43 1018.96 1019.43 1019.46 1019.43 1019.50 1018.91 1017.64 1016.63 1016.35 1016.16 1016.47 1016.50 1017.01 1017.41 1018.49 1019.41 1019.30
1022.58 1022.43 1022.44 1022.39 1022.39 1022.07 1021.71 1021.33 1020.85 1020.33 1019.80 1019.30 1019.37 1019.67 1019.79 1019.56 1019.67 1020.14 1020.64 1020.90 1020.69 1020.22 1019.75 1019.82 1019.73 1019.29 1019.24 1018.99 1018.89 1018.87 1018.92 1018.94 1019.22 1019.27 1019.33 1019.22 1018.44 1016.90 1016.47 1016.35 1016.25 1016.19 1016.69 1017.60 1018.44 1019.24 1019.07
1022.16 1022.08 1022.02 1022.03 1021.99 1021.87 1021.54 1021.18 1020.78 1020.26 1019.64 1019.25 1019.59 1019.95 1019.87 1019.66 1019.81 1020.17 1021.05 1020.84 1020.28 1019.79 1019.76 1019.75 1019.67 1019.60 1019.25 1019.17 1019.18 1019.14 1019.08 1018.93 1019.01 1019.01 1019.00 1019.11 1019.10 1017.60 1016.84 1016.68 1016.74 1016.77 1016.86 1017.58 1018.19 1018.74 1018.83
1021.82 1021.62 1021.67 1021.64 1021.64 1021.54 1021.32 1021.04 1020.67 1020.29 1019.68 1019.27 1019.95 1020.46 1020.11 1020.00 1020.46 1020.82 1020.76 1020.10 1019.70 1019.54 1019.59 1019.62 1019.60 1019.39 1019.30 1019.09 1019.07 1019.02 1019.00 1018.88 1018.99 1019.19 1019.26 1019.29 1019.31 1018.73 1017.53 1017.04 1016.98 1017.08 1017.22 1017.55 1018.44 1018.58 1018.44
1021.25 1021.31 1021.24 1021.23 1021.25 1021.15 1021.04 1020.82 1020.56 1020.30 1020.11 1020.27 1020.44 1020.36 1020.13 1019.94 1020.54 1020.80 1020.35 1019.84 1019.48 1019.41 1019.40 1019.46 1019.49 1019.29 1019.04 1019.19 1019.15 1018.82 1018.60 1018.58 1018.84 1019.19 1019.42 1019.53 1019.52 1019.11 1017.97 1017.77 1017.33 1017.41 1017.56 1017.69 1018.17 1018.68 1018.48
1020.55 1020.63 1020.80 1020.89 1020.88 1020.86 1020.66 1020.51 1020.36 1020.14 1020.05 1020.37 1020.53 1020.57 1020.34 1020.25 1020.40 1020.34 1020.17 1019.67 1019.33 1019.06 1019.07 1019.07 1019.08 1019.14 1019.34 1019.00 1018.92 1018.89 1018.66 1018.56 1018.79 1019.09 1019.38 1019.61 1019.95 1019.85 1019.23 1018.54 1018.23 1017.91 1017.69 1017.88 1018.45 1018.94 1018.30
1019.69 1019.82 1019.99 1020.27 1020.36 1020.43 1020.39 1020.24 1020.01 1019.92 1019.82 1020.25 1020.70 1020.79 1020.69 1020.62 1020.32 1020.28 1020.05 1019.54 1019.26 1019.08 1019.09 1018.95 1018.92 1018.91 1019.26 1019.36 1018.94 1018.99 1018.84 1018.76 1018.92 1019.16 1019.59 1019.97 1020.21 1019.96 1019.24 1018.76 1018.47 1018.01 1017.94 1018.13 1018.39 1018.10 1018.27
1018.68 1019.01 1019.17 1019.43 1019.63 1019.78 1019.86 1019.95 1019.83 1019.77 1019.67 1020.31 1020.47 1020.72 1020.94 1020.62 1020.26 1020.08 1019.89 1019.36 1018.97 1018.65 1018.88 1018.87 1018.99 1018.63 1018.85 1019.26 1019.28 1019.27 1019.10 1019.25 1019.28 1019.45 1019.71 1020.22 1020.41 1020.25 1019.46 1018.55 1018.33 1017.95 1017.55 1017.72 1018.01 1017.93 1017.55
1017.44 1017.78 1018.30 1018.71 1018.90 1019.04 1019.21 1019.29 1019.57 1019.49 1019.50 1019.96 1020.56 1020.26 1020.16 1020.41 1020.39 1020.37 1019.56 1018.90 1018.64 1018.50 1018.34 1018.32 1018.63 1018.79 1018.80 1018.69 1018.87 1019.14 1019.46 1019.60 1019.62 1019.85 1020.27 1020.69 1020.83 1020.83 1019.85 1018.85 1018.13 1017.37 1016.35 1016.67 1016.90 1016.85 1016.78
1016.56 1016.79 1017.22 1017.79 1018.22 1018.47 1018.58 1018.68 1018.99 1019.18 1019.15 1019.43 1019.92 1020.07 1020.41 1020.41 1020.24 1019.71 1019.05 1018.88 1018.64 1018.54 1018.66 1018.50 1018.62 1018.90 1019.07 1018.76 1018.97 1019.17 1019.38 1019.57 1019.86 1020.04 1020.29 1020.87 1021.22 1021.23 1020.48 1019.18 1017.78 1015.94 1015.53 1015.69 1015.94 1015.71 1015.74
1015.42 1016.00 1016.34 1016.81 1017.36 1017.86 1018.05 1018.12 1018.29 1018.83 1018.95 1019.21 1019.55 1019.72 1019.76 1020.00 1019.53 1019.15 1018.84 1018.70 1018.67 1018.72 1018.86 1018.77 1018.74 1019.01 1019.06 1019.10 1019.37 1019.49 1019.52 1019.72 1019.94 1020.19 1020.54 1020.86 1021.20 1021.33 1020.98 1019.68 1017.06 1015.32 1015.26 1015.31 1015.29 1014.83 1014.57
1013.90 1014.91 1015.48 1016.05 1016.33 1016.96 1017.38 1017.61 1017.72 1018.20 1018.70 1019.01 1019.28 1019.10 1019.40 1019.62 1018.97 1018.36 1018.67 1018.66 1018.93 1019.18 1019.26 1019.08 1019.10 1019.24 1019.28 1019.71 1019.82 1020.04 1019.85 1019.47 1019.96 1020.41 1020.64 1020.99 1021.10 1021.22 1020.94 1019.79 1017.58 1015.27 1014.80 1014.82 1015.03 1014.72 1014.21
1012.59 1013.53 1014.60 1015.13 1015.54 1015.91 1016.56 1017.07 1017.18 1017.55 1018.34 1018.52 1018.90 1018.92 1019.11 1019.34 1018.43 1018.18 1018.45 1018.44 1018.52 1019.04 1019.39 1019.39 1019.34 1019.56 1019.61 1020.22 1020.46 1020.39 1019.86 1019.28 1019.60 1019.94 1020.47 1020.90 1021.11 1021.03 1020.55 1019.53 1017.13 1015.13 1014.87 1014.93 1015.07 1014.85 1014.11
1011.49 1012.61 1013.52 1014.29 1014.55 1015.02 1015.70 1016.34 1016.55 1016.79 1017.80 1017.97 1018.36 1018.65 1018.60 1018.98 1018.33 1017.85 1017.90 1018.01 1018.28 1018.57 1019.02 1019.44 1019.64 1019.76 1020.12 1020.42 1020.56 1020.30 1020.14 1019.38 1019.31 1018.92 1019.09 1019.40 1019.95 1020.20 1020.01 1018.98 1016.86 1015.01 1015.40 1015.32 1014.18 1013.92 1013.87
1012.89 1011.99 1012.68 1013.38 1013.97 1014.50 1015.19 1015.79 1016.10 1016.52 1016.99 1017.39 1018.03 1018.32 1018.31 1018.86 1018.31 1017.89 1017.74 1017.36 1017.10 1017.42 1017.95 1018.89 1019.00 1018.90 1019.21 1019.85 1020.37 1020.33 1020.13 1019.74 1019.35 1019.13 1018.44 1018.53 1017.87 1018.13 1018.10 1016.50 1015.03 1015.05 1014.69 1014.21 1014.22 1014.26 1014.05
Wind_Speed
10 11 11 11 11 12 13 13 13 11 10 10 10 10 10 11 11 11 12 12 12 9 8 8 9 11 2 5 3 5 12 11 3 5 3 3 2 4 5 1 2 1 5 6 9 10 6
10 11 11 11 11 12 13 13 13 13 11 11 10 10 10 10 11 11 12 13 11 8 6 6 8 8 4 4 4 5 7 6 4 2 0 4 5 4 1 4 2 1 4 9 9 2 6
10 10 11 11 12 13 13 14 14 14 12 11 11 10 10 11 11 12 12 12 11 8 5 4 5 2 2 3 2 6 6 3 3 2 2 1 1 3 5 2 1 4 6 6 8 4 6
9 9 10 11 11 12 13 13 14 14 14 13 12 12 11 10 11 12 12 12 10 9 5 2 3 1 4 3 1 6 5 2 4 4 3 3 2 3 2 2 3 5 7 4 7 8 3
9 10 10 10 12 13 13 14 14 15 15 14 13 12 12 11 10 11 12 13 11 7 5 3 1 1 5 5 3 4 1 2 3 3 3 4 2 3 3 2 0 3 3 5 1 7 4
10 10 11 11 12 13 14 14 15 15 16 15 13 12 13 12 11 11 12 7 5 3 3 2 1 3 5 5 4 4 3 2 2 3 1 1 3 3 1 1 2 4 1 3 3 4 3
11 11 12 12 13 14 14 15 16 17 17 17 14 13 12 12 11 9 6 3 6 4 7 3 1 2 6 7 1 2 3 5 0 2 2 4 3 4 8 9 6 4 4 2 2 4 6
11 12 12 13 14 14 15 16 17 17 18 18 16 13 11 11 11 6 2 4 4 4 2 3 3 4 5 0 4 2 0 2 3 3 3 3 3 4 5 6 8 2 3 1 2 3 5
11 13 13 14 14 15 16 16 17 18 19 19 16 14 11 10 9 3 3 4 1 2 3 4 4 3 6 1 3 5 2 1 2 5 3 1 5 7 3 6 8 3 1 3 4 3 7
10 12 14 14 15 15 15 16 17 18 18 17 17 14 10 11 4 1 2 1 0 1 6 7 4 2 0 1 4 4 1 1 3 3 4 3 7 4 5 4 4 2 4 1 4 4 4
8 11 13 14 15 15 16 16 17 18 17 16 16 13 11 4 4 2 1 1 2 4 6 5 6 1 1 1 5 3 1 1 2 4 4 6 8 6 5 2 2 5 3 4 4 4 5
7 10 12 14 15 16 16 16 17 17 17 17 15 12 7 3 3 1 2 3 4 9 4 5 3 6 6 2 2 5 3 3 1 3 3 2 4 2 3 4 2 5 3 7 5 4 4
7 10 11 13 15 15 15 16 16 17 18 17 15 9 2 1 1 2 2 3 7 7 3 5 3 5 2 3 5 6 5 6 4 6 6 6 4 5 2 4 4 6 7 4 5 5 5
9 10 12 13 14 14 14 15 16 17 18 17 13 4 4 2 2 3 3 6 7 4 5 3 3 3 3 3 1 6 4 6 2 3 2 4 9 3 4 3 0 4 5 6 3 2 4
9 9 11 13 14 13 14 15 16 17 18 18 4 2 2 2 2 3 6 6 8 6 2 4 4 2 4 3 1 3 2 2 2 3 2 2 4 1 2 1 4 1 2 2 6 1 3
11 9 11 12 14 13 13 15 15 17 17 13 2 2 2 1 3 5 5 4 3 3 2 1 2 0 1 4 3 3 2 2 2 1 2 1 4 1 3 1 3 2 5 3 3 2 3
13 11 11 12 11 12 11 13 15 16 18 3 3 3 2 2 3 5 3 4 4 3 2 4 2 3 3 2 1 2 2 2 1 3 1 2 2 6 2 2 3 4 2 4 3 4 4
15 12 13 12 11 11 10 10 12 14 16 6 2 2 2 2 4 1 2 4 1 3 2 2 2 3 3 1 2 1 3 4 3 1 1 1 3 4 4 2 0 1 1 2 4 2 1
16 15 14 12 11 10 10 9 10 11 8 1 2 2 1 3 0 2 3 3 3 4 4 3 3 5 2 3 2 3 2 1 2 2 2 0 1 4 8 5 1 2 1 2 3 3 4
18 16 16 14 12 11 10 9 9 9 8 3 2 2 4 4 1 4 2 4 3 3 3 4 3 1 1 2 4 3 2 1 2 1 3 2 1 5 6 4 1 4 2 3 4 1 1
20 20 18 15 12 12 11 9 7 8 7 2 2 3 3 2 2 1 2 2 3 3 3 4 2 5 5 4 2 3 2 3 1 2 2 2 3 2 6 7 3 5 6 4 6 5 5
20 20 18 16 14 12 11 10 8 6 3 2 4 4 1 1 1 2 2 4 6 3 5 4 4 2 6 4 3 4 1 2 3 1 1 1 3 3 5 0 2 5 7 7 5 4 8
22 21 20 18 16 14 12 10 9 5 4 1 1 2 4 2 1 3 5 5 3 3 3 2 6 2 3 5 3 2 2 1 1 1 1 0 0 2 6 4 7 6 6 8 5 4 6
24 22 21 19 17 15 13 11 9 7 4 3 3 3 4 4 4 6 3 5 4 3 3 1 3 3 1 1 1 2 2 3 3 3 3 3 1 2 5 5 3 5 3 5 7 6 8
24 22 22 20 18 16 14 12 10 8 6 2 3 4 4 3 3 3 6 5 0 0 2 3 4 2 0 2 2 4 2 1 0 1 3 2 3 1 0 2 7 1 2 4 3 5 7
25 23 22 21 19 17 15 13 12 9 7 3 2 2 3 5 7 3 3 3 4 3 3 3 1 0 3 2 2 3 4 3 2 1 2 3 2 3 2 0 4 2 2 2 2 6 3
26 24 23 22 20 18 17 15 13 10 10 4 2 3 3 3 4 5 4 6 5 3 2 2 2 1 3 2 2 4 4 3 3 5 5 2 1 4 3 3 9 5 3 2 2 7 4
26 24 23 22 20 20 19 17 15 13 12 4 1 4 4 3 4 5 5 5 3 3 4 3 2 0 2 2 3 3 3 3 1 3 6 7 6 4 3 2 9 6 4 6 6 2 3
29 13 19 15 17 17 16 15 14 12 13 8 2 2 3 2 3 0 4 3 5 6 5 2 2 3 4 3 1 1 3 1 3 4 1 3 6 5 9 7 3 5 3 4 1 3 3
Wind_Direction
32 28 18 14 10 7 7 360 355 347 340 333 325 325 319 316 315 314 316 320 330 331 328 328 322 340 360 36 298 280 320 318 349 159 214 202 147 170 173 245 261 232 282 291 235 267 278
29 22 12 6 9 4 1 1 357 348 341 330 326 322 319 315 312 314 316 319 334 336 326 327 333 345 49 44 251 293 306 309 1 145 36 185 228 165 128 198 242 342 310 274 283 248 260
19 20 6 4 7 1 358 358 354 351 345 333 330 326 317 313 311 311 313 316 325 326 331 332 337 9 36 244 249 317 321 349 2 122 114 345 17 213 163 213 211 146 282 293 251 216 246
19 11 8 2 0 358 355 354 354 348 346 339 329 329 321 314 311 310 310 311 311 307 337 335 332 58 270 259 306 318 340 11 35 63 72 41 73 85 334 340 184 194 134 219 254 169 229
12 9 359 0 356 353 352 353 350 348 345 339 331 326 327 321 314 308 306 308 301 283 291 309 52 32 317 323 330 308 292 308 76 45 46 53 23 42 315 359 54 338 164 191 267 178 138
6 2 357 356 355 351 350 351 348 346 345 341 336 330 325 323 317 309 306 290 304 348 49 88 36 29 327 299 303 315 287 251 207 114 106 88 37 357 304 250 240 196 163 245 163 185 57
355 358 356 353 352 348 348 349 347 346 345 343 341 334 326 323 317 314 342 25 22 355 47 143 275 239 283 289 249 300 274 330 8 199 251 184 149 217 187 219 283 252 193 191 244 160 98
350 352 352 352 350 348 347 346 346 345 344 344 341 336 332 329 326 313 86 87 142 185 355 215 242 257 256 282 310 294 122 13 12 318 310 3 280 272 239 219 204 163 127 247 3 96 90
346 343 345 347 348 347 345 344 344 344 343 343 343 335 333 339 329 38 81 141 238 168 96 300 235 244 262 166 276 279 81 287 285 357 353 137 277 312 31 26 22 46 116 193 153 131 45
341 339 340 343 344 345 344 342 341 340 339 341 344 336 334 327 62 225 48 170 59 89 71 303 351 304 165 233 293 224 213 140 331 315 343 300 307 344 17 61 21 75 338 216 138 89 157
337 335 336 338 340 342 341 341 340 337 337 339 342 339 338 50 151 84 123 110 67 55 50 271 293 246 264 99 303 333 89 49 318 301 78 282 336 358 13 345 30 250 312 133 104 76 81
328 328 328 331 334 336 337 337 337 335 336 337 339 335 336 30 50 343 83 74 47 45 275 332 293 347 17 9 289 308 32 23 252 332 344 289 276 5 290 290 222 271 73 48 57 87 42
311 321 322 325 328 330 333 334 336 337 335 338 333 329 17 115 197 131 80 51 34 97 297 304 324 350 351 293 331 33 9 14 33 38 351 333 336 309 59 339 357 52 51 10 4 10 220
294 307 313 318 321 325 331 334 335 337 335 339 332 16 353 44 123 112 54 52 69 257 257 337 325 317 316 19 335 5 33 8 8 70 71 79 346 353 348 95 277 16 121 145 205 192 266
281 288 300 308 314 320 328 332 334 335 336 338 346 11 40 339 115 59 74 50 198 197 274 315 317 61 323 337 289 48 49 284 272 15 86 24 282 322 262 212 141 163 42 180 109 79 50
269 269 285 298 306 312 321 329 333 335 337 341 87 65 338 106 102 62 73 215 214 226 163 117 302 91 280 302 359 22 323 203 261 117 129 339 322 192 293 216 229 246 147 80 1 150 264
261 260 274 286 294 302 312 324 332 336 339 352 58 51 269 88 70 54 124 225 237 235 176 162 246 292 246 279 236 280 250 282 233 313 165 62 98 293 10 347 15 9 20 53 134 145 174
255 251 265 272 280 292 303 317 327 338 342 48 93 27 324 44 40 18 153 194 213 212 169 292 265 212 245 232 270 270 277 226 179 182 267 214 151 268 253 339 55 162 173 114 115 285 284
252 253 257 260 269 278 292 307 322 335 17 65 99 228 352 98 96 306 275 267 226 184 203 187 261 217 171 256 272 221 228 133 67 21 5 15 302 342 343 4 7 336 269 101 86 70 218
242 243 253 252 260 267 274 290 312 325 338 110 86 6 330 57 97 154 203 248 256 211 225 188 229 107 318 252 217 289 270 154 163 163 139 98 241 194 203 227 206 289 200 165 137 90 261
239 238 239 242 248 255 263 275 297 319 334 117 50 237 189 268 295 222 172 215 227 249 232 202 232 201 184 294 269 234 274 320 143 113 104 106 251 207 260 250 237 240 236 217 198 208 173
230 236 231 230 237 241 246 260 279 311 116 91 158 149 51 235 289 167 207 242 209 230 167 234 220 186 179 209 229 298 196 219 250 11 91 25 272 355 289 141 181 266 245 229 227 243 260
224 225 226 227 228 230 233 241 256 281 155 159 247 20 108 251 125 121 224 230 247 173 206 195 201 181 216 224 181 220 262 310 251 207 266 182 153 33 272 356 317 298 229 186 195 196 169
224 222 217 219 224 225 224 226 239 254 192 145 197 114 112 251 177 201 216 199 232 228 254 216 162 179 235 122 193 135 178 235 227 241 156 157 124 125 271 340 359 249 145 181 204 229 212
219 220 216 213 217 219 218 218 220 236 201 128 182 145 142 227 198 269 226 211 149 346 249 234 200 190 162 54 45 344 335 4 207 79 177 175 131 231 272 257 287 4 208 172 172 288 197
208 211 212 213 210 210 211 210 209 218 207 129 207 145 126 128 239 129 160 175 183 219 316 233 347 254 66 87 115 211 231 227 227 213 92 85 89 136 145 189 257 265 198 165 150 297 182
204 204 211 211 209 204 204 203 202 199 212 162 208 176 106 161 242 142 185 183 144 133 203 285 176 106 48 114 177 193 244 190 226 196 178 163 105 192 185 246 286 239 171 149 101 238 155
200 203 206 210 205 202 197 199 195 184 199 169 176 195 140 182 264 185 182 154 122 140 158 203 83 275 75 169 175 224 205 237 263 198 180 173 154 200 118 185 280 153 86 170 224 231 190
18 216 194 179 173 157 154 155 156 168 184 175 175 197 138 167 237 247 255 254 169 183 146 191 228 158 172 107 220 122 246 231 198 257 43 243 200 188 190 217 279 216 220 241 162 253 238